This is the latest recevied weather packets stored in our database for station/object KE8WAY. If no packets are shown the sender has not sent any weather packets the latest 10 day(s).
| Time | Temp. | Humidity | Pressure | Rain* | Wind** | Luminosity | Snow |
|---|---|---|---|---|---|---|---|
| 1777228766 | 10.56° C | 80% | 1020.3 hPa | 0 mm | - | 265 W/m² | - |
| 1777228461 | 10.56° C | 82% | 1020 hPa | 0 mm | - | 260 W/m² | - |
| 1777228156 | 10.56° C | 80% | 1020.1 hPa | 0 mm | - | 325 W/m² | - |
| 1777227855 | 10.56° C | 80% | 1020 hPa | 0 mm | - | 277 W/m² | - |
| 1777227553 | 10.56° C | 80% | 1020.4 hPa | 0 mm | - | 322 W/m² | - |
| 1777227248 | 10.56° C | 79% | 1020.1 hPa | 0 mm | - | 262 W/m² | - |
| 1777226945 | 10.56° C | 79% | 1020.3 hPa | 0 mm | - | 305 W/m² | - |
| 1777226643 | 10.56° C | 80% | 1020.1 hPa | 0 mm | - | 278 W/m² | - |
| 1777226339 | 10.56° C | 79% | 1020.3 hPa | 0 mm | - | 286 W/m² | - |
| 1777226035 | 10° C | 79% | 1020.5 hPa | 0 mm | - | 364 W/m² | - |
| 1777225731 | 10° C | 81% | 1020.1 hPa | 0 mm | - | 244 W/m² | - |
| 1777225428 | 10° C | 80% | 1020.1 hPa | 0 mm | - | 269 W/m² | - |
| 1777225125 | 10° C | 81% | 1020.3 hPa | 0 mm | - | 243 W/m² | - |
| 1777224822 | 10.56° C | 80% | 1020.1 hPa | 0 mm | - | 214 W/m² | - |
| 1777224518 | 10° C | 81% | 1020.7 hPa | 0 mm | - | 194 W/m² | - |
| 1777224213 | 10° C | 80% | 1020.6 hPa | 0 mm | - | 189 W/m² | - |
| 1777223910 | 10° C | 81% | 1020.6 hPa | 0 mm | - | 210 W/m² | - |
| 1777223607 | 10° C | 80% | 1020.4 hPa | 0 mm | - | 177 W/m² | - |
| 1777223303 | 10° C | 81% | 1020.4 hPa | 0 mm | - | 200 W/m² | - |
| 1777223001 | 10° C | 80% | 1020.4 hPa | 0 mm | - | 241 W/m² | - |
| 1777222699 | 10° C | 81% | 1020.4 hPa | 0 mm | - | 199 W/m² | - |
| 1777222395 | 10° C | 80% | 1020.3 hPa | 0 mm | - | 229 W/m² | - |
| 1777222093 | 10° C | 80% | 1020.1 hPa | 0 mm | - | 239 W/m² | - |
| 1777221789 | 10° C | 79% | 1020.3 hPa | 0 mm | - | 217 W/m² | - |
| 1777221486 | 10° C | 79% | 1020.5 hPa | 0 mm | - | 216 W/m² | - |
* Rain latest hour (hover to see other rain measurements)
** Current wind speed in m/s (hover to see current wind gust speed)